This is the latest recevied weather packets stored in our database for station/object DL0GY-13. If no packets are shown the sender has not sent any weather packets the latest 10 day(s).
| Time | Temp. | Humidity | Pressure | Rain* | Wind** | Luminosity | Snow |
|---|---|---|---|---|---|---|---|
| 1777842032 | 14.44° C | 83% | 1010.6 hPa | 0 mm | - | - | - |
| 1777841431 | 15° C | 81% | 1010.5 hPa | 0 mm | - | - | - |
| 1777840832 | 15.56° C | 79% | 1010.6 hPa | 0 mm | - | - | - |
| 1777840232 | 15.56° C | 77% | 1010.9 hPa | 0 mm | - | - | - |
| 1777839632 | 15.56° C | 77% | 1010.7 hPa | 0 mm | - | - | - |
| 1777839031 | 15.56° C | 77% | 1010.7 hPa | 0 mm | - | - | - |
| 1777838432 | 15.56° C | 77% | 1010.7 hPa | 0 mm | - | - | - |
| 1777837232 | 15.56° C | 76% | 1010.4 hPa | 0 mm | - | - | - |
| 1777836632 | 16.11° C | 76% | 1010.5 hPa | 0 mm | - | - | - |
| 1777836032 | 16.11° C | 75% | 1010.4 hPa | 0 mm | - | - | - |
| 1777834832 | 16.67° C | 74% | 1010.4 hPa | 0 mm | - | - | - |
| 1777834232 | 16.67° C | 74% | 1010.2 hPa | 0 mm | - | - | - |
| 1777833631 | 16.67° C | 73% | 1010 hPa | 0 mm | - | - | - |
| 1777833033 | 16.67° C | 73% | 1010 hPa | 0 mm | - | - | - |
| 1777832433 | 16.67° C | 73% | 1010 hPa | 0 mm | - | - | - |
| 1777831832 | 16.67° C | 72% | 1009.9 hPa | 0 mm | - | - | - |
| 1777831232 | 16.67° C | 72% | 1009.8 hPa | 0 mm | - | - | - |
| 1777830632 | 17.22° C | 72% | 1009.8 hPa | 0 mm | - | - | - |
| 1777830032 | 17.22° C | 72% | 1010 hPa | 0 mm | - | - | - |
| 1777829432 | 16.67° C | 72% | 1009.9 hPa | 0 mm | - | - | - |
| 1777828832 | 16.67° C | 73% | 1010 hPa | 0 mm | - | - | - |
| 1777828232 | 16.67° C | 72% | 1010 hPa | 0 mm | - | - | - |
| 1777827632 | 16.67° C | 72% | 1010.1 hPa | 0 mm | - | - | - |
| 1777827032 | 16.67° C | 72% | 1010.1 hPa | 0 mm | - | - | - |
| 1777826432 | 16.67° C | 71% | 1009.9 hPa | 0 mm | - | - | - |
* Rain latest hour (hover to see other rain measurements)
** Current wind speed in m/s (hover to see current wind gust speed)